This demonstration page uses our WeatherBlox Daily Observations layout. Learn more.

Left ArrowRight Arrow

Hourly Observations for October 15, 2015

Temp ( °F °C ) Dew Point ( °F °C ) Humidity (%) Winds ( mph kmh ) Pressure ( in mb ) Visibility ( mi km ) Precip ( " mm )
12:53 am 00:53 Clear 53 11.7 50 10 89 89 Calm 30.05 1018 10 16 0.00 0.00
1:53 am 01:53 Clear 51 10.6 48 8.9 89 89 NE 3 6 30.06 1018 10 16 0.00 0.00
2:53 am 02:53 Clear 51 10.6 48 8.9 89 89 Calm 30.06 1018 10 16 0.00 0.00
3:53 am 03:53 Clear 51 10.6 48 8.9 89 89 Calm 30.06 1018 10 16 0.00 0.00
4:53 am 04:53 Clear 50 10 47 8.3 89 89 Calm 30.07 1018 10 16 0.00 0.00
5:53 am 05:53 Clear 49 9.4 47 8.3 93 93 Calm 30.09 1019 10 16 0.00 0.00
6:53 am 06:53 Clear 48 8.9 46 7.8 93 93 Calm 30.11 1020 10 16 0.00 0.00
7:53 am 07:53 Sunny 48 8.9 46 7.8 93 93 Calm 30.12 1020 10 16 0.00 0.00
8:53 am 08:53 Sunny 53 11.7 50 10 89 89 Calm 30.14 1021 10 16 0.00 0.00
9:53 am 09:53 Sunny 59 15 53 11.7 81 81 Calm 30.16 1022 10 16 0.00 0.00
10:53 am 10:53 Sunny 67 19.4 55 12.8 66 66 Calm 30.17 1022 10 16 0.00 0.00
11:53 am 11:53 Sunny 74 23.3 50 10 43 43 Calm 30.15 1021 10 16 0.00 0.00
12:53 pm 12:53 Sunny 76 24.4 48 8.9 37 37 Calm 30.14 1021 10 16 0.00 0.00
1:53 pm 13:53 Sunny 78 25.6 46 7.8 32 32 SSE 3 6 30.12 1020 10 16 0.00 0.00
2:53 pm 14:53 Sunny 78 25.6 47 8.3 33 33 Calm 30.09 1019 10 16 0.00 0.00
3:53 pm 15:53 Sunny 81 27.2 47 8.3 30 30 Calm 30.08 1019 10 16 0.00 0.00
4:53 pm 16:53 Sunny 79 26.1 45 7.2 30 30 SW 6 9 30.07 1018 10 16 0.00 0.00
5:53 pm 17:53 Sunny 79 26.1 47 8.3 32 32 W 6 9 30.07 1018 10 16 0.00 0.00
6:53 pm 18:53 Sunny 72 22.2 57 13.9 59 59 Calm 30.08 1019 10 16 0.00 0.00
7:53 pm 19:53 Clear 64 17.8 57 13.9 78 78 Calm 30.10 1019 10 16 0.00 0.00
8:53 pm 20:53 Clear 62 16.7 57 13.9 84 84 Calm 30.11 1020 10 16 0.00 0.00
9:53 pm 21:53 Clear 60 15.6 56 13.3 86 86 Calm 30.12 1020 10 16 0.00 0.00
10:53 pm 22:53 Clear 59 15 55 12.8 87 87 Calm 30.12 1020 10 16 0.00 0.00
11:53 pm 23:53 Clear 56 13.3 54 12.2 93 93 Calm 30.13 1020 10 16 0.00 0.00

Powered by AerisWeather